User: anonymous   Login
Location: ????????
(55.1591°N, 39.1782°E)
Time: 14:36:08
(UTC+00:00)
Language:

CZ-2D R/B - Orbit

View from above orbital plane
View from above orbital plane
View from above satellite
View from above satellite

Ground track
Ground track

The orbit data is extracted from the following two-line orbital elements,

1 37932U 11068C   24176.84584806  .00000151  00000-0  87006-4 0  9995
2 37932  98.7970 118.6151 0036767 179.8038 240.9215 14.22525310653769
Epoch (UTC): 24 June 2024 20:18:01
Eccentricity: 0.0036767
inclination: 98.7970°
perigee height: 790 km
apogee height: 843 km
right ascension of ascending node: 118.6151°
argument of perigee: 179.8038°
revolutions per day: 14.22525310
mean anomaly at epoch: 240.9215°
orbit number at epoch: 65376

The dashed part of the orbit path shows where the satellite is in the earth's shadow,  

DLR